Tracking 25964 objects as of 11-Aug-2022
HD Live streaming from Space Station
objects crossing your sky now

COSMOS 1058

Track COSMOS 1058 now!
10-day predictions
COSMOS 1058 is classified as:


NORAD ID: 11135
Int'l Code: 1978-109H
Perigee: 1,487.3 km
Apogee: 1,544.6 km
Inclination: 74.0 °
Period: 116.2 minutes
Semi major axis: 7886 km
RCS: 0.7109 m2 (medium)
Launch date: December 5, 1978
Source: Commonwealth of Independent States (former USSR) (CIS)
Launch site: PLESETSK MISSILE AND SPACE COMPLEX (PKMTR)
aabbcc
Your satellite tracking list
Your tracking list is empty




NASA's NSSDC Master Catalog

Two Line Element Set (TLE):
1 11135U 78109H   22223.78444497  .00000006  00000-0  16145-3 0  9990
2 11135  74.0153  73.8853 0036325 152.4977 286.6810 12.39474518976772
Source of the keplerian elements: AFSPC